Погода в Грязном

Россия / Курская область     51°41′11″N   37°39′12″E
темп.,
°C
ветер,
м/с
пор.,
м/с
влажн.,
%
обл.,
%
осадки,
мм/ч
давл.,
гПа
погр.,
м
3 марта, ср
ср300:000ссз61197100 0.3 1013674
03:00−1ссз7139292 0.5 1015671
06:00−2сз6139298 0.0 1016630
09:00−3ссз7129191 0.1 1018747
12:00−2ссз7108492 0.0 1020931
15:00−1сз6108258 0.0 1020807
18:00−3з410890 0.0 1020247
21:00−3з612920 0.0 1020346
4 марта, чт
чт400:00−2з6129351 0.0 1018663
03:00−2зюз6129470 0.0 1017396
06:00−3зюз7139129 0.0 1014340
09:00−2зюз7168615 0.0 1013456
12:00+1зюз814800 0.0 1010671
15:00+2зюз714862 0.0 1008668
18:00+2зюз615885 0.0 1005563
21:00+2зюз6149442 0.0 1004543
5 марта, пт
пт500:00+2зюз71496100 0.1 1003475
03:00+2зюз71397100 0.3 1003522
06:00+1зсз61097100 0.2 1005602
09:000сз5890100 0.3 1007649
12:00−1ссз348786 0.0 1009517
15:00−1с238493 0.1 1011501
18:00−2с2487100 0.0 1012151
21:00−2ссв2388100 0.0 1014133
6 марта, сб
сб600:00−3ссв3688100 0.0 1014347
03:00−4ссв3688100 0.0 1015314
06:00−5ссв2486100 0.0 1015218
09:00−5с117999 0.0 1016147
12:00−2з34620 0.0 1016661
15:00−2зсз687419 0.2 1016919
18:00−5сз8127864 0.1 1017977
21:00−6ссз8118275 0.1 1019992
7 марта, вс
вс700:00−7сз588156 0.0 1020705
03:00−7з487828 0.0 1020435
06:00−7зюз511760 0.0 1018539
09:00−5юз8155833 0.0 1016837
12:00−2зюз111751100 0.0 10121137
15:000зюз121956100 0.0 10081411
18:00−1зюз112064100 0.0 10051359
21:00−1зюз11196898 0.0 10041018